Riverton, WY

1:56 AM MST on February 24, 2017 (GMT -0700)
Riverton Regional

Weather History for KRIW - February, 2014

Change the Weather History Date:

Friday, February 7, 2014

  Actual Average Record
Temperature  
Mean Temperature -1 °F 22 °F  
Max Temperature 11 °F 33 °F 59 °F (1996)
Min Temperature -14 °F 11 °F -16 °F (2003)
Degree Days  
Heating Degree Days 66 43  
Month to date heating degree days 445 306  
Since 1 July heating degree days 5058 5021  
Cooling Degree Days 0 0  
Month to date cooling degree days 0 0  
Year to date cooling degree days 0 0  
Moisture  
Dew Point -10 °F    
Average Humidity 72    
Maximum Humidity 87    
Minimum Humidity 57    
Precipitation  
Precipitation 0.00 in 0.01 in 0.11 in (2011)
Month to date precipitation 0.04 0.05  
Year to date precipitation 0.72 0.29  
Snow  
Snow 0.00 in - - ()
Month to date snowfall 0.7  
Since 1 July snowfall 44.9  
Snow Depth 1.00 in    
Sea Level Pressure  
Sea Level Pressure 30.09 in    
Wind  
Wind Speed 3 mph (SE)    
Max Wind Speed 9 mph    
Max Gust Speed 10 mph    
Visibility 10 miles    
Events      
T = Trace of Precipitation, MM = Missing Value Source: NWS Daily Summary

Daily Weather History Graph

Daily Weather History Graph

Search for Another Location

Airport or City:

Trip Planner

Search our weather history database for the weather conditions in past years. The results will help you decide how hot, cold, wet, or windy it might be!

Date:

Astronomy

Feb. 07, 2014 Rise Set
Actual Time 7:21 AM MST 5:34 PM MST
Civil Twilight 6:52 AM MST 6:04 PM MST
Nautical Twilight 6:18 AM MST 6:37 PM MST
Astronomical Twilight 5:45 AM MST 7:11 PM MST
Moon 11:46 AM MST (2/7) 1:42 AM MST (2/7)
Length of Visible Light 11h 11m
Length of Day
10h 12m
First Quarter, 60% of the Moon is Illuminated
Feb 7
First Quarter
Feb 14
Full
Feb 22
Last Quarter
Mar 1
New
Mar 8
First Quarter

Hourly Weather History & Observations

Time (MST) Temp. Windchill Dew Point Humidity Pressure Visibility Wind Dir Wind Speed Gust Speed Precip Events Conditions
12:53 AM -9.0 °F - -17.0 °F 68% 30.17 in 10.0 mi Calm Calm - N/A   Clear
1:53 AM -11.0 °F - -18.9 °F 68% 30.17 in 10.0 mi Calm Calm - N/A   Clear
2:53 AM -11.9 °F -23.8 °F -18.0 °F 74% 30.17 in 10.0 mi NW 4.6 mph - N/A   Clear
3:53 AM -14.1 °F - -18.9 °F 79% 30.17 in 10.0 mi Calm Calm - N/A   Clear
4:53 AM -9.9 °F - -18.0 °F 68% 30.13 in 10.0 mi Calm Calm - N/A   Clear
5:53 AM -11.9 °F - -18.0 °F 74% 30.15 in 10.0 mi Calm Calm - N/A   Clear
6:53 AM -13.0 °F - -17.0 °F 82% 30.13 in 10.0 mi Calm Calm - N/A   Clear
7:53 AM -11.0 °F -20.4 °F -17.0 °F 75% 30.12 in 10.0 mi Variable 3.5 mph - N/A   Clear
8:53 AM -7.1 °F -18.1 °F -13.0 °F 75% 30.11 in 10.0 mi SSE 4.6 mph - N/A   Clear
9:53 AM -5.1 °F - -11.0 °F 76% 30.09 in 10.0 mi Calm Calm - N/A   Clear
10:53 AM -4.0 °F -12.4 °F -9.9 °F 76% 30.08 in 10.0 mi SW 3.5 mph - N/A   Clear
11:53 AM -0.0 °F -11.6 °F -8.0 °F 69% 30.06 in 10.0 mi SSW 5.8 mph - N/A   Clear
12:53 PM 3.9 °F -3.4 °F -6.0 °F 64% 30.01 in 10.0 mi SE 3.5 mph - N/A   Clear
1:53 PM 5.0 °F -2.1 °F -5.1 °F 63% 30.01 in 10.0 mi South 3.5 mph - N/A   Clear
2:53 PM 8.1 °F 1.4 °F -4.0 °F 58% 30.01 in 10.0 mi East 3.5 mph - N/A   Mostly Cloudy
3:53 PM 10.0 °F 1.8 °F -0.9 °F 61% 30.01 in 10.0 mi ENE 4.6 mph - N/A   Mostly Cloudy
4:53 PM 9.0 °F 0.6 °F -2.0 °F 61% 30.02 in 10.0 mi ESE 4.6 mph - N/A   Overcast
5:53 PM 8.1 °F -3.2 °F -0.9 °F 67% 30.06 in 10.0 mi East 6.9 mph - N/A   Overcast
6:53 PM 6.1 °F - -2.9 °F 67% 30.09 in 10.0 mi Calm Calm - N/A   Scattered Clouds
7:53 PM 3.9 °F - -4.0 °F 70% 30.10 in 10.0 mi Calm Calm - N/A   Partly Cloudy
8:53 PM 3.0 °F - -4.0 °F 73% 30.09 in 10.0 mi Calm Calm - N/A   Clear
9:53 PM 3.9 °F -6.9 °F -4.0 °F 70% 30.09 in 10.0 mi SW 5.8 mph - N/A   Partly Cloudy
10:53 PM 1.9 °F -7.6 °F -5.1 °F 72% 30.09 in 10.0 mi NE 4.6 mph - N/A   Partly Cloudy
11:53 PM 3.0 °F -8.0 °F -5.1 °F 69% 30.05 in 10.0 mi NE 5.8 mph - N/A   Clear